Location: *
(43.7000°S, 168.7000°W)
Time: 14:14:43
(UTC+00:00)

USA 267 - Pass Details

Date: 07 July 2020
Orbit: 1101 x 1107 km, 123.0° (Epoch: 01 August)

Event Time Altitude Azimuth Distance (km) Brightness Sun altitude
Rises 15:49:36 0° 132° (SE) 3,947 6.8 -31.4°
Reaches altitude 10° 15:52:07 10° 134° (SE) 2,986 6.0 -30.9°
Enters shadow 15:58:27 65° 204° (SSW) 1,215 3.2 -29.8°
